Dewpoint
13 12 12 12 13 13 13 13 12 13 13 12 13 13 13 13 11 11 9 12 12 12 12 13 12 14 13 13 13 12 13 12 12 14 13 12 12 12
14 13 13 13 13 14 14 14 13 12 13 12 13 13 13 13 12 12 10 13 14 13 13 13 13 13 13 13 13 13 13 11 12 13 12 12 12 13
14 14 14 13 13 14 14 14 13 13 14 13 13 13 13 13 13 13 13 14 13 13 13 12 11 10 9 10 11 11 12 11 13 13 13 13 12 13
15 14 14 15 13 13 13 14 14 14 14 14 12 12 12 13 15 14 14 14 13 12 10 10 10 15 16 16 16 15 15 13 12 13 13 14 14 14
14 13 12 13 14 14 15 15 15 14 14 14 14 14 13 13 13 13 12 12 11 10 10 10 12 15 16 16 15 15 14 14 14 13 12 14 13 14
14 14 14 14 14 14 15 14 14 14 14 14 14 14 13 13 13 13 11 11 11 10 12 13 14 15 14 14 14 14 13 14 14 13 13 14 14 14
14 14 14 14 13 13 14 13 12 13 13 14 14 13 12 12 12 12 12 12 11 11 13 14 14 13 12 12 12 12 12 13 13 14 14 14 14 14
13 14 14 13 13 13 12 12 13 12 12 13 13 13 13 12 12 13 12 12 12 12 13 14 13 10 10 11 13 13 10 11 11 13 14 14 14 14
14 14 13 13 13 14 12 12 11 12 13 13 13 13 13 12 12 12 12 12 13 13 13 13 11 10 10 12 12 10 8 9 12 12 11 12 13 15
12 12 12 12 12 13 13 12 12 13 13 13 13 13 12 12 11 11 12 13 13 13 13 12 11 11 8 10 11 10 7 6 7 10 10 10 11 14
13 13 13 12 12 13 13 13 12 12 12 12 11 11 11 11 11 11 11 12 11 11 11 11 10 9 5 5 9 10 6 1 3 5 7 9 9 11
13 13 13 13 13 13 12 11 11 10 10 8 8 8 9 9 9 9 10 10 9 9 9 8 5 -0 -1 2 4 -11 -15 -14 -12 -9 -5 -1 1 4
12 12 12 13 12 12 11 11 11 9 8 8 7 7 8 8 7 6 6 5 4 3 1 -1 -3 -6 -11 -13 -16 -17 -18 -20 -21 -19 -16 -19 -20 -19
11 11 11 11 11 9 7 4 1 -0 0 1 2 2 1 0 -0 -1 -2 -3 -5 -6 -8 -9 -12 -15 -17 -18 -18 -19 -18 -19 -20 -21 -21 -21 -21 -21
7 7 6 6 4 1 -1 -1 -0 2 4 3 2 0 -2 -4 -7 -9 -9 -9 -9 -11 -13 -15 -17 -17 -17 -17 -16 -16 -19 -19 -19 -20 -21 -21 -20 -21
-11 -9 -6 -6 -5 -5 -1 2 4 4 3 2 0 -2 -6 -9 -11 -12 -12 -13 -13 -15 -16 -17 -18 -18 -17 -17 -16 -15 -15 -15 -16 -16 -19 -19 -18 -17
-11 -12 -10 -6 -1 1 2 3 3 2 2 0 -3 -7 -10 -11 -13 -15 -15 -17 -17 -18 -18 -18 -17 -18 -18 -17 -16 -14 -13 -13 -13 -14 -15 -17 -17 -15
-5 -11 -4 1 3 3 3 2 1 -1 -4 -6 -7 -9 -10 -12 -14 -15 -16 -16 -17 -18 -19 -20 -20 -18 -16 -15 -15 -12 -12 -13 -13 -13 -12 -13 -14 -12
-4 -10 -1 1 2 1 -1 -1 -2 -3 -5 -7 -8 -10 -12 -14 -15 -15 -16 -16 -16 -16 -16 -16 -16 -15 -14 -12 -10 -8 -9 -8 -8 -9 -9 -9 -8 -10
-11 -10 -1 1 0 1 -1 -2 -4 -5 -6 -7 -10 -12 -13 -14 -14 -15 -15 -15 -14 -13 -12 -12 -11 -11 -10 -8 -8 -9 -8 -8 -8 -8 -8 -8 -7 -6
-9 -3 2 1 1 -1 -2 -3 -5 -6 -7 -9 -11 -13 -13 -14 -14 -14 -13 -13 -12 -11 -10 -10 -9 -9 -9 -7 -5 -8 -10 -10 -10 -9 -8 -7 -7 -6
-1 3 2 1 -1 -1 -2 -4 -6 -7 -9 -11 -12 -13 -14 -14 -12 -12 -11 -10 -10 -9 -8 -8 -8 -7 -6 -5 -4 -3 -2 -4 -7 -10 -10 -9 -4 -3
1 1 -0 -1 -1 -3 -4 -5 -6 -8 -9 -11 -12 -14 -13 -12 -11 -10 -10 -9 -8 -7 -7 -8 -7 -6 -5 -4 -4 -2 -1 -1 -2 -2 -7 -13 -12 -7
Wind_Speed
11 10 10 9 8 7 6 6 7 7 11 10 9 10 10 10 12 17 18 14 11 10 14 8 12 14 16 10 11 10 13 17 16 16 12 10 11 11
9 11 11 10 9 8 7 6 8 9 10 11 11 10 10 12 14 18 17 14 9 11 13 14 17 20 19 17 16 15 14 15 15 16 11 10 9 9
10 10 11 12 12 12 11 10 9 10 13 14 15 14 14 13 13 14 13 12 12 13 16 19 19 18 16 14 14 14 14 10 10 10 11 9 8 8
15 15 13 11 11 12 13 11 10 12 13 14 14 14 15 14 13 13 13 14 17 18 19 16 15 11 9 6 8 9 9 9 7 7 9 8 11 12
16 15 15 15 13 12 11 10 10 11 11 11 12 13 14 13 13 12 13 14 15 15 13 13 11 9 7 8 9 10 9 10 6 6 10 9 8 10
17 17 16 16 13 12 11 11 11 10 10 11 13 15 12 11 11 12 12 12 11 11 9 9 5 6 9 10 11 12 13 11 11 11 11 11 10 11
17 17 15 14 11 11 11 11 11 10 12 14 13 12 11 13 13 14 15 13 12 8 5 7 5 7 8 8 9 11 13 15 15 14 13 15 12 14
13 14 16 15 13 12 11 12 12 12 12 13 11 12 13 15 15 15 15 14 10 11 9 5 6 9 10 9 9 11 12 13 13 13 13 13 14 16
12 11 12 13 14 14 14 15 13 12 13 12 13 14 14 15 15 12 12 12 10 9 7 6 6 9 9 7 8 8 11 12 10 10 11 11 11 11
9 13 12 14 14 15 15 14 12 11 12 13 13 14 14 12 10 9 7 6 8 8 9 7 10 8 7 7 10 10 13 15 12 11 10 9 9 9
15 14 15 14 12 14 12 10 9 9 11 12 12 12 10 11 11 10 7 7 7 10 12 13 15 13 8 9 10 13 18 18 15 14 15 14 11 10
9 9 10 9 9 9 9 9 10 11 11 12 11 11 12 12 12 12 11 9 10 12 12 13 13 14 7 7 12 18 14 15 14 14 15 15 17 16
10 10 11 11 11 12 12 12 13 13 12 12 12 12 13 14 14 14 12 10 10 10 12 13 14 15 12 13 15 14 17 15 15 13 12 16 18 20
12 13 14 14 13 12 11 9 8 8 7 7 9 10 11 11 11 10 11 10 9 10 11 12 14 15 15 15 14 13 16 19 18 19 21 19 17 16
10 12 13 13 12 10 9 8 7 7 7 7 8 10 9 9 10 9 9 9 9 9 10 11 10 11 12 12 13 16 18 17 17 23 23 24 24 23
7 9 10 11 10 9 8 7 6 7 7 8 10 9 9 6 6 6 6 6 7 7 8 9 10 9 10 11 12 14 18 21 24 24 23 23 25 27
9 8 8 8 8 8 8 8 8 9 9 9 10 8 6 6 5 4 4 4 6 6 6 8 10 12 11 11 12 15 22 24 26 29 30 29 26 28
11 9 8 9 9 8 8 8 9 9 9 7 6 5 3 4 3 3 4 5 7 8 10 12 12 10 10 13 13 19 21 24 27 29 31 34 34 34
14 13 13 11 11 9 7 7 8 7 6 4 4 4 2 2 2 3 4 6 7 10 12 13 14 15 16 18 12 21 24 27 29 30 32 34 37 36
14 14 14 13 10 7 6 6 6 6 5 4 4 3 2 2 4 4 5 7 8 9 11 13 15 17 18 18 20 21 26 29 31 33 35 35 33 36
11 14 14 12 8 5 5 6 6 5 5 4 4 3 3 4 5 5 6 8 9 10 12 14 15 15 15 16 15 19 19 22 28 32 34 37 39 38
9 14 15 11 7 6 6 7 7 6 6 5 5 4 4 5 5 6 6 6 6 8 10 11 12 14 15 16 16 18 21 25 28 27 30 32 30 31
13 14 11 8 9 10 8 7 7 7 6 6 6 4 4 4 4 4 5 5 5 7 9 10 13 17 18 17 20 19 19 22 26 26 28 31 31 33
Wind_Direction
247 250 248 246 250 263 282 303 312 319 321 324 330 331 321 327 339 347 352 339 337 336 340 342 342 347 348 314 318 322 341 334 343 343 328 335 345 345
254 255 255 248 252 256 269 287 295 292 286 298 301 305 305 308 321 334 337 335 337 333 332 330 330 324 322 314 302 302 309 315 332 348 344 333 336 340
255 259 263 259 259 261 265 269 274 279 284 290 293 293 296 301 307 312 319 326 336 330 326 325 325 326 331 322 317 314 312 308 327 343 353 357 349 343
261 261 257 254 259 265 262 261 269 287 292 298 302 302 293 290 293 306 305 314 322 325 327 328 330 332 342 337 341 347 335 327 311 328 327 348 2 7
260 257 253 255 259 265 257 260 270 286 290 294 305 313 310 305 302 303 306 304 315 315 323 325 325 309 317 322 333 344 342 336 318 298 312 314 330 336
254 258 256 251 256 262 261 268 274 278 287 289 295 310 318 316 314 315 317 318 323 325 334 334 334 340 341 331 319 315 310 321 311 308 308 325 298 299
252 257 249 249 250 255 267 274 281 283 285 293 293 302 310 314 311 317 321 327 336 318 343 344 11 8 355 355 349 345 334 333 330 326 316 308 307 305
255 257 258 246 256 262 273 285 286 288 283 278 286 291 299 304 311 314 316 323 335 323 346 352 34 30 12 2 339 336 343 346 344 343 337 332 325 315
249 250 263 266 264 270 274 282 289 285 282 283 287 291 298 303 309 314 318 321 320 328 349 332 7 27 1 353 341 342 357 353 340 330 330 329 332 324
254 261 261 273 284 289 289 283 287 287 283 286 286 287 292 299 305 316 325 319 311 307 321 323 325 353 339 312 304 311 333 334 332 331 334 336 329 322
254 251 253 258 269 264 270 284 290 289 289 288 287 291 297 303 309 312 316 303 288 293 302 309 314 326 332 291 289 304 316 317 321 314 308 311 319 317
247 252 250 252 233 244 259 271 278 282 281 279 278 280 286 292 296 297 296 294 294 295 296 313 314 324 328 285 299 311 321 327 328 323 320 316 309 306
246 251 253 253 256 262 268 271 271 268 261 258 261 268 278 285 289 292 293 293 295 298 308 320 323 325 326 315 319 325 327 331 331 331 333 330 328 325
253 254 256 259 259 265 266 262 258 259 246 244 261 272 279 286 292 294 297 301 306 313 319 325 326 328 328 328 330 330 332 335 335 337 336 335 332 328
253 253 259 261 267 268 266 254 244 244 253 264 274 285 287 293 295 303 312 314 316 319 320 322 327 329 332 332 333 336 339 339 335 332 334 336 337 333
276 262 261 262 255 252 242 233 234 246 264 284 286 283 288 289 289 293 303 305 304 317 327 331 335 342 338 338 337 337 339 343 339 340 338 339 339 338
291 278 261 244 235 221 217 227 237 252 269 280 275 276 277 278 282 288 297 303 308 321 332 343 348 347 341 344 343 342 343 344 345 343 340 340 343 339
280 269 244 229 225 229 241 259 270 274 272 269 266 257 252 265 294 321 333 336 339 336 338 339 344 349 348 346 349 347 346 344 345 345 344 341 341 344
263 251 239 232 235 244 255 273 277 267 263 257 256 265 272 287 317 325 336 339 342 347 349 352 351 352 355 1 6 360 355 352 350 350 348 347 342 343
249 238 231 227 222 235 267 279 274 271 269 272 269 267 278 314 330 340 347 350 358 359 359 0 1 4 8 6 5 11 7 2 356 352 348 345 342 340
235 221 213 213 218 249 271 275 266 265 270 275 282 296 318 330 329 341 351 360 7 9 8 9 10 8 12 10 6 9 13 7 7 2 356 350 346 342
211 198 200 210 234 269 279 274 269 267 270 269 275 293 311 322 333 344 352 2 8 11 10 10 10 9 7 5 356 353 359 0 4 5 7 3 352 335
197 199 213 239 267 271 266 260 261 262 259 265 280 292 301 307 318 329 342 353 2 5 360 360 4 3 2 357 358 351 344 346 348 349 355 359 355 350
Height
1600 1600 1600 1600 1600 1600 1600 1599 1600 1599 1598 1598 1597 1596 1594 1593 1592 1590 1587 1585 1583 1582 1580 1578 1576 1575 1572 1570 1568 1566 1564 1562 1560 1557 1555 1554 1552 1550
1598 1598 1598 1598 1598 1598 1598 1598 1598 1597 1597 1596 1595 1594 1593 1591 1590 1588 1586 1583 1581 1580 1579 1577 1575 1574 1571 1569 1567 1565 1563 1560 1558 1556 1554 1553 1551 1549
1596 1596 1596 1596 1596 1595 1595 1595 1595 1594 1593 1592 1591 1591 1590 1589 1588 1586 1584 1582 1580 1579 1577 1575 1572 1571 1569 1566 1564 1562 1560 1558 1557 1555 1553 1551 1550 1548
1594 1594 1594 1593 1593 1592 1592 1592 1591 1591 1590 1588 1587 1587 1586 1585 1584 1583 1582 1580 1579 1577 1575 1573 1571 1569 1567 1566 1564 1561 1559 1557 1556 1554 1552 1551 1549 1548
1590 1590 1591 1590 1589 1589 1590 1589 1588 1587 1586 1585 1585 1584 1583 1582 1581 1580 1579 1578 1577 1574 1573 1572 1570 1569 1567 1565 1563 1560 1558 1556 1554 1553 1551 1550 1549 1547
1586 1587 1588 1588 1587 1587 1587 1586 1585 1584 1584 1583 1583 1582 1581 1580 1578 1577 1577 1576 1575 1573 1571 1569 1569 1568 1566 1564 1562 1559 1557 1555 1553 1552 1550 1548 1547 1545
1581 1583 1583 1584 1583 1583 1584 1583 1582 1581 1581 1581 1580 1580 1579 1579 1578 1576 1574 1574 1573 1571 1571 1570 1569 1567 1565 1562 1560 1558 1555 1553 1551 1551 1549 1547 1545 1544
1578 1579 1580 1580 1581 1580 1580 1580 1579 1579 1578 1577 1576 1576 1577 1576 1576 1575 1573 1571 1571 1570 1569 1569 1568 1566 1564 1561 1559 1556 1554 1552 1550 1548 1546 1545 1544 1542
1575 1576 1576 1578 1579 1577 1576 1575 1575 1576 1576 1575 1574 1574 1573 1573 1572 1571 1570 1569 1568 1567 1568 1567 1568 1566 1564 1561 1559 1556 1553 1552 1549 1547 1545 1543 1541 1539
1573 1572 1572 1574 1576 1577 1576 1574 1572 1572 1572 1573 1572 1571 1570 1570 1570 1569 1568 1566 1565 1566 1565 1565 1565 1565 1562 1560 1557 1555 1552 1550 1548 1546 1545 1542 1539 1536
1568 1569 1569 1570 1572 1573 1573 1572 1571 1570 1571 1570 1569 1568 1567 1567 1567 1567 1566 1566 1564 1564 1564 1563 1561 1561 1560 1556 1554 1551 1550 1548 1544 1542 1540 1539 1539 1536
1566 1567 1567 1567 1567 1570 1570 1569 1570 1570 1569 1568 1567 1566 1565 1564 1564 1565 1564 1563 1563 1561 1560 1560 1558 1556 1555 1552 1551 1549 1546 1545 1543 1539 1537 1533 1531 1531
1562 1564 1565 1565 1565 1566 1565 1566 1567 1567 1566 1566 1566 1565 1564 1562 1560 1560 1559 1559 1558 1559 1557 1556 1555 1554 1551 1550 1547 1544 1541 1539 1537 1537 1534 1532 1528 1524
1560 1560 1561 1562 1561 1562 1562 1561 1562 1565 1564 1563 1565 1563 1562 1561 1560 1557 1557 1555 1554 1553 1553 1552 1551 1550 1549 1546 1543 1542 1539 1536 1534 1531 1530 1528 1526 1522
1556 1558 1558 1556 1559 1559 1560 1560 1560 1561 1562 1562 1560 1563 1561 1560 1558 1555 1555 1555 1553 1549 1550 1550 1547 1546 1545 1543 1540 1537 1536 1534 1530 1527 1525 1523 1520 1516
1555 1554 1554 1554 1554 1555 1558 1559 1558 1559 1560 1558 1561 1557 1558 1557 1557 1556 1553 1551 1552 1551 1550 1547 1546 1543 1541 1540 1538 1535 1531 1529 1527 1524 1520 1517 1515 1513
1554 1553 1553 1552 1554 1553 1555 1556 1555 1555 1556 1554 1555 1554 1555 1555 1553 1552 1551 1550 1550 1547 1546 1547 1545 1541 1539 1539 1536 1533 1530 1526 1522 1518 1514 1512 1510 1506
1550 1550 1551 1552 1552 1554 1555 1555 1554 1553 1552 1551 1554 1551 1549 1552 1551 1549 1549 1546 1544 1543 1542 1542 1542 1542 1539 1536 1534 1531 1528 1523 1519 1515 1510 1504 1502 1499
1546 1547 1548 1549 1551 1552 1552 1552 1552 1551 1549 1550 1551 1550 1548 1548 1549 1547 1544 1544 1541 1540 1539 1537 1537 1536 1533 1531 1532 1528 1524 1518 1514 1511 1506 1500 1495 1492
1542 1543 1545 1546 1548 1550 1550 1549 1550 1551 1550 1550 1549 1548 1547 1547 1547 1544 1542 1542 1539 1538 1537 1534 1533 1531 1529 1528 1525 1526 1521 1516 1511 1506 1501 1496 1492 1487
1539 1541 1543 1546 1546 1547 1547 1547 1547 1547 1548 1548 1549 1547 1545 1544 1545 1541 1539 1539 1537 1536 1534 1532 1531 1529 1528 1526 1525 1523 1522 1518 1512 1506 1499 1491 1484 1478
1536 1537 1540 1542 1544 1547 1545 1543 1544 1544 1543 1545 1545 1544 1542 1542 1542 1540 1539 1537 1535 1534 1533 1532 1531 1529 1526 1524 1522 1520 1517 1514 1510 1506 1500 1495 1488 1478
1536 1537 1540 1540 1542 1541 1540 1540 1541 1540 1541 1543 1543 1540 1540 1539 1538 1538 1537 1536 1534 1532 1532 1531 1529 1527 1525 1523 1520 1517 1515 1511 1505 1500 1496 1493 1488 1481